ANZ16 NZQN-YPAD

Flight info

Callsign ANZ16
Flight time N/A
Altitude 38000
Route ADKOS P753 TASIS DCT BOOIN DCT ML H345 MAVTO
Aircraft A320/M-SDE3FGHIRWY/LB1

Departure

Time 2026-04-29 04:16
Airport Queenstown Airport (NZQN)

Arrival

Time N/A
Airport Adelaide International Airport (YPAD)
Time Latitude Longitude Altitude Speed Heading
2026-04-29 03:59 -45.02146 168.74060 1164 ft 0 kts 206°
2026-04-29 04:08 -45.02143 168.74061 1161 ft 2 kts 206°
2026-04-29 04:08 -45.02127 168.74074 1163 ft 3 kts 218°
2026-04-29 04:08 -45.02114 168.74093 1164 ft 3 kts 243°
2026-04-29 04:08 -45.02109 168.74116 1164 ft 2 kts 285°
2026-04-29 04:09 -45.02111 168.74124 1163 ft 0 kts 296°
2026-04-29 04:12 -45.02104 168.74106 1164 ft 7 kts 296°
2026-04-29 04:12 -45.02034 168.74065 1164 ft 15 kts 20°
2026-04-29 04:13 -45.01938 168.74123 1164 ft 15 kts 29°
2026-04-29 04:13 -45.01896 168.74243 1167 ft 14 kts 79°
2026-04-29 04:13 -45.01868 168.74434 1165 ft 28 kts 78°
2026-04-29 04:13 -45.01811 168.74789 1165 ft 45 kts 77°
2026-04-29 04:14 -45.01735 168.75233 1192 ft 47 kts 76°
2026-04-29 04:14 -45.01668 168.75653 1195 ft 37 kts 79°
2026-04-29 04:14 -45.01650 168.75819 1192 ft 3 kts 168°
2026-04-29 04:14 -45.01652 168.75800 1194 ft 0 kts 265°
2026-04-29 04:15 -45.01695 168.75508 1196 ft 68 kts 257°
2026-04-29 04:15 -45.01846 168.74547 1168 ft 130 kts 258°
2026-04-29 04:15 -45.02058 168.73115 1411 ft 156 kts 261°
2026-04-29 04:16 -45.02254 168.71621 2082 ft 154 kts 260°
2026-04-29 04:16 -45.02485 168.70162 2829 ft 150 kts 263°
2026-04-29 04:16 -45.02744 168.68670 3339 ft 165 kts 254°
2026-04-29 04:16 -45.03582 168.67425 3532 ft 198 kts 210°
2026-04-29 04:17 -45.04964 168.66797 3870 ft 212 kts 208°
2026-04-29 04:17 -45.06015 168.65466 4225 ft 207 kts 245°
2026-04-29 04:17 -45.06622 168.63602 4753 ft 208 kts 256°
2026-04-29 04:17 -45.07130 168.61686 5408 ft 208 kts 255°
2026-04-29 04:18 -45.07653 168.59771 6083 ft 208 kts 255°
2026-04-29 04:18 -45.08210 168.57868 6738 ft 209 kts 254°
2026-04-29 04:18 -45.08786 168.56013 7427 ft 207 kts 253°
2026-04-29 04:18 -45.09380 168.54177 8176 ft 202 kts 253°
2026-04-29 04:19 -45.09975 168.52386 8948 ft 198 kts 252°
2026-04-29 04:19 -45.10565 168.50644 9725 ft 193 kts 252°
2026-04-29 04:19 -45.11140 168.48969 10417 ft 190 kts 252°
2026-04-29 04:19 -45.11719 168.47285 11010 ft 191 kts 252°
2026-04-29 04:20 -45.12306 168.45573 11588 ft 191 kts 254°
2026-04-29 04:20 -45.12519 168.43804 12120 ft 185 kts 280°
2026-04-29 04:20 -45.11935 168.42135 12524 ft 205 kts 307°
2026-04-29 04:20 -45.10713 168.40871 12739 ft 224 kts 316°
2026-04-29 04:21 -45.09352 168.39619 12881 ft 242 kts 317°
2026-04-29 04:21 -45.07871 168.38278 13016 ft 261 kts 318°
2026-04-29 04:21 -45.06301 168.36860 13150 ft 280 kts 317°
2026-04-29 04:21 -45.04605 168.35328 13330 ft 295 kts 318°
2026-04-29 04:22 -45.02844 168.33740 13929 ft 303 kts 320°
2026-04-29 04:22 -45.01071 168.32142 14610 ft 308 kts 319°
2026-04-29 04:22 -44.99238 168.30485 15175 ft 314 kts 319°
2026-04-29 04:22 -44.97386 168.28803 15774 ft 318 kts 318°
2026-04-29 04:23 -44.95497 168.27086 16348 ft 325 kts 317°
2026-04-29 04:23 -44.93587 168.25351 16890 ft 328 kts 318°
2026-04-29 04:23 -44.91679 168.23617 17509 ft 331 kts 317°
2026-04-29 04:23 -44.89804 168.21706 18056 ft 331 kts 309°
2026-04-29 04:24 -44.88255 168.19363 18690 ft 324 kts 300°
2026-04-29 04:24 -44.87093 168.16661 19143 ft 321 kts 289°
2026-04-29 04:24 -44.86356 168.13694 19721 ft 320 kts 282°
2026-04-29 04:24 -44.85790 168.10649 20244 ft 321 kts 282°
2026-04-29 04:25 -44.85218 168.07633 20695 ft 323 kts 282°
2026-04-29 04:25 -44.84628 168.04554 21148 ft 326 kts 283°
2026-04-29 04:25 -44.84033 168.01464 21630 ft 327 kts 283°
2026-04-29 04:25 -44.83431 167.98341 22111 ft 330 kts 283°
2026-04-29 04:26 -44.82833 167.95237 22608 ft 332 kts 283°
2026-04-29 04:26 -44.82227 167.92085 23036 ft 334 kts 284°
2026-04-29 04:26 -44.81618 167.88910 23542 ft 337 kts 284°
2026-04-29 04:26 -44.81005 167.85720 23908 ft 338 kts 284°
2026-04-29 04:27 -44.80386 167.82512 24254 ft 341 kts 284°
2026-04-29 04:27 -44.79761 167.79275 24590 ft 343 kts 284°
2026-04-29 04:27 -44.79141 167.76069 24942 ft 344 kts 284°
2026-04-29 04:27 -44.78512 167.72832 25183 ft 341 kts 284°
2026-04-29 04:28 -44.77889 167.69617 25223 ft 339 kts 284°
2026-04-29 04:28 -44.77269 167.66414 25233 ft 338 kts 284°
2026-04-29 04:28 -44.76651 167.63228 25233 ft 339 kts 284°
2026-04-29 04:28 -44.76025 167.60015 25225 ft 338 kts 285°
2026-04-29 04:29 -44.75399 167.56828 25236 ft 338 kts 284°
2026-04-29 04:29 -44.74768 167.53637 25227 ft 338 kts 284°
2026-04-29 04:29 -44.74140 167.50451 25233 ft 338 kts 285°
2026-04-29 04:29 -44.73513 167.47257 25231 ft 338 kts 284°
2026-04-29 04:30 -44.72892 167.44088 25233 ft 338 kts 284°
2026-04-29 04:30 -44.72264 167.40892 25235 ft 339 kts 284°
2026-04-29 04:30 -44.70999 167.34477 25236 ft 342 kts 284°
2026-04-29 04:31 -44.70363 167.31248 25279 ft 344 kts 284°
2026-04-29 04:31 -44.69720 167.27995 25635 ft 346 kts 284°
2026-04-29 04:31 -44.69070 167.24727 25995 ft 347 kts 284°
2026-04-29 04:31 -44.68417 167.21444 26330 ft 349 kts 284°
2026-04-29 04:32 -44.67770 167.18188 26660 ft 351 kts 284°
2026-04-29 04:32 -44.67110 167.14869 27005 ft 353 kts 284°
2026-04-29 04:32 -44.66445 167.11542 27335 ft 354 kts 285°
2026-04-29 04:32 -44.65774 167.08198 27662 ft 356 kts 285°
2026-04-29 04:33 -44.65098 167.04835 27933 ft 358 kts 284°
2026-04-29 04:33 -44.64414 167.01434 28136 ft 363 kts 284°
2026-04-29 04:33 -44.63732 166.98052 28369 ft 365 kts 284°
2026-04-29 04:33 -44.63034 166.94599 28639 ft 368 kts 284°
2026-04-29 04:34 -44.62332 166.91122 28943 ft 369 kts 284°
2026-04-29 04:34 -44.61629 166.87648 29367 ft 368 kts 284°
2026-04-29 04:34 -44.60959 166.84227 29818 ft 366 kts 284°
2026-04-29 04:34 -44.60306 166.80759 30264 ft 365 kts 284°
2026-04-29 04:35 -44.59667 166.77314 30646 ft 363 kts 284°
2026-04-29 04:35 -44.59040 166.73923 31015 ft 362 kts 284°
2026-04-29 04:35 -44.58403 166.70508 31389 ft 360 kts 284°
2026-04-29 04:35 -44.57764 166.67113 31728 ft 360 kts 284°
2026-04-29 04:36 -44.57125 166.63719 32081 ft 359 kts 284°
2026-04-29 04:36 -44.56486 166.60334 32461 ft 358 kts 284°
2026-04-29 04:36 -44.55852 166.57005 32847 ft 356 kts 284°
2026-04-29 04:36 -44.55212 166.53654 33242 ft 354 kts 284°
2026-04-29 04:37 -44.54579 166.50322 33639 ft 352 kts 284°
2026-04-29 04:37 -44.53946 166.46992 34029 ft 351 kts 285°
2026-04-29 04:37 -44.53318 166.43703 34356 ft 349 kts 285°
2026-04-29 04:37 -44.52685 166.40416 34624 ft 348 kts 285°
2026-04-29 04:38 -44.52060 166.37169 34865 ft 348 kts 285°
2026-04-29 04:38 -44.51430 166.33892 35076 ft 348 kts 285°
2026-04-29 04:38 -44.50797 166.30599 35254 ft 349 kts 285°
2026-04-29 04:38 -44.50164 166.27310 35460 ft 350 kts 285°
2026-04-29 04:39 -44.49532 166.24021 35663 ft 350 kts 285°
2026-04-29 04:39 -44.48896 166.20723 35866 ft 350 kts 285°
2026-04-29 04:39 -44.48258 166.17421 36068 ft 350 kts 285°
2026-04-29 04:39 -44.47625 166.14165 36182 ft 351 kts 285°
2026-04-29 04:40 -44.46977 166.10859 36204 ft 351 kts 285°
2026-04-29 04:40 -44.45683 166.04287 36209 ft 351 kts 285°
2026-04-29 04:41 -44.44390 165.97689 36213 ft 351 kts 285°
2026-04-29 04:41 -44.43093 165.91060 36215 ft 352 kts 285°
2026-04-29 04:42 -44.41794 165.84476 36215 ft 353 kts 285°
2026-04-29 04:42 -44.40480 165.77850 36218 ft 353 kts 285°
2026-04-29 04:43 -44.39390 165.72349 36213 ft 353 kts 285°
2026-04-29 04:43 -44.38072 165.65734 36215 ft 353 kts 285°
2026-04-29 04:44 -44.36746 165.59096 36215 ft 354 kts 284°
2026-04-29 04:44 -44.35430 165.52497 36212 ft 354 kts 284°
2026-04-29 04:45 -44.34098 165.45859 36220 ft 354 kts 285°
2026-04-29 04:45 -44.32766 165.39261 36216 ft 354 kts 285°
2026-04-29 04:46 -44.31431 165.32634 36219 ft 354 kts 285°
2026-04-29 04:46 -44.30092 165.26009 36217 ft 354 kts 285°
2026-04-29 04:47 -44.28741 165.19375 36217 ft 354 kts 285°
2026-04-29 04:47 -44.27392 165.12799 36220 ft 354 kts 285°
2026-04-29 04:48 -44.26037 165.06179 36218 ft 354 kts 285°
2026-04-29 04:48 -44.24679 164.99558 36218 ft 354 kts 285°
2026-04-29 04:49 -44.23323 164.92972 36228 ft 357 kts 284°
2026-04-29 04:49 -44.21936 164.86272 36231 ft 359 kts 284°
2026-04-29 04:50 -44.20548 164.79616 36223 ft 360 kts 284°
2026-04-29 04:50 -44.19150 164.72904 36232 ft 360 kts 284°
2026-04-29 04:51 -44.17753 164.66187 36236 ft 360 kts 284°
2026-04-29 04:51 -44.16359 164.59526 36217 ft 360 kts 284°
2026-04-29 04:52 -44.14951 164.52802 36234 ft 362 kts 284°
2026-04-29 04:52 -44.13523 164.46075 36235 ft 362 kts 284°
2026-04-29 04:53 -44.12096 164.39355 36235 ft 362 kts 284°
2026-04-29 04:53 -44.10684 164.32667 36234 ft 362 kts 284°
2026-04-29 04:54 -44.09254 164.25943 36235 ft 362 kts 284°
2026-04-29 04:54 -44.07812 164.19218 36241 ft 363 kts 284°
2026-04-29 04:55 -44.06370 164.12500 36242 ft 363 kts 284°
2026-04-29 04:55 -44.04927 164.05792 36242 ft 364 kts 284°
2026-04-29 04:56 -44.03466 163.99051 36242 ft 364 kts 284°
2026-04-29 04:56 -44.02004 163.92293 36245 ft 364 kts 284°
2026-04-29 04:57 -44.00553 163.85603 36245 ft 365 kts 284°
2026-04-29 04:57 -43.99079 163.78837 36251 ft 365 kts 284°
2026-04-29 04:58 -43.97615 163.72119 36251 ft 365 kts 284°
2026-04-29 04:58 -43.96130 163.65356 36256 ft 365 kts 285°
2026-04-29 04:59 -43.94647 163.58598 36256 ft 365 kts 284°
2026-04-29 04:59 -43.93168 163.51869 36258 ft 367 kts 284°
2026-04-29 05:00 -43.91664 163.45098 36259 ft 367 kts 285°
2026-04-29 05:00 -43.90154 163.38329 36264 ft 367 kts 285°
2026-04-29 05:01 -43.88652 163.31614 36263 ft 367 kts 285°
2026-04-29 05:01 -43.87142 163.24844 36264 ft 367 kts 285°
2026-04-29 05:02 -43.85626 163.18063 36259 ft 368 kts 285°
2026-04-29 05:02 -43.84113 163.11326 36265 ft 368 kts 285°
2026-04-29 05:03 -43.82582 163.04539 36266 ft 368 kts 285°
2026-04-29 05:03 -43.81054 162.97791 36271 ft 368 kts 285°
2026-04-29 05:04 -43.79517 162.91011 36271 ft 368 kts 285°
2026-04-29 05:04 -43.77966 162.84210 36274 ft 370 kts 285°
2026-04-29 05:05 -43.76421 162.77451 36272 ft 370 kts 285°
2026-04-29 05:05 -43.74858 162.70637 36276 ft 370 kts 285°
2026-04-29 05:06 -43.73292 162.63845 36273 ft 370 kts 285°
2026-04-29 05:06 -43.71729 162.57081 36288 ft 371 kts 285°
2026-04-29 05:07 -43.70155 162.50279 36279 ft 372 kts 285°
2026-04-29 05:07 -43.68581 162.43494 36274 ft 372 kts 285°
2026-04-29 05:08 -43.66998 162.36693 36281 ft 372 kts 285°
2026-04-29 05:08 -43.65402 162.29861 36287 ft 372 kts 285°
2026-04-29 05:09 -43.63811 162.23082 36286 ft 373 kts 285°
2026-04-29 05:09 -43.62208 162.16252 36286 ft 374 kts 285°
2026-04-29 05:10 -43.60595 162.09402 36297 ft 374 kts 285°
2026-04-29 05:10 -43.58990 162.02609 36284 ft 374 kts 285°
2026-04-29 05:11 -43.57366 161.95770 36298 ft 375 kts 285°
2026-04-29 05:11 -43.55733 161.88928 36295 ft 375 kts 285°
2026-04-29 05:12 -43.54106 161.82088 36297 ft 375 kts 285°
2026-04-29 05:12 -43.52476 161.75297 36298 ft 375 kts 285°
2026-04-29 05:13 -43.50837 161.68468 36292 ft 375 kts 285°
2026-04-29 05:13 -43.49200 161.61648 36297 ft 375 kts 285°
2026-04-29 05:14 -43.47550 161.54816 36293 ft 376 kts 285°
2026-04-29 05:14 -43.45902 161.48019 36301 ft 376 kts 285°
2026-04-29 05:15 -43.44232 161.41163 36307 ft 377 kts 285°
2026-04-29 05:15 -43.42566 161.34360 36307 ft 377 kts 285°
2026-04-29 05:16 -43.40892 161.27511 36311 ft 377 kts 285°
2026-04-29 05:16 -43.39226 161.20689 36305 ft 377 kts 285°
2026-04-29 05:17 -43.37541 161.13828 36312 ft 378 kts 285°
2026-04-29 05:17 -43.35856 161.07009 36312 ft 379 kts 286°
2026-04-29 05:18 -43.34159 161.00155 36315 ft 379 kts 286°
2026-04-29 05:18 -43.32460 160.93291 36315 ft 379 kts 286°
2026-04-29 05:19 -43.30763 160.86472 36307 ft 379 kts 286°
2026-04-29 05:19 -43.29049 160.79602 36318 ft 380 kts 286°
2026-04-29 05:20 -43.27327 160.72737 36322 ft 380 kts 286°
2026-04-29 05:20 -43.25611 160.65898 36323 ft 380 kts 286°
2026-04-29 05:21 -43.23878 160.59020 36329 ft 380 kts 286°
2026-04-29 05:21 -43.22140 160.52146 36326 ft 381 kts 286°
2026-04-29 05:22 -43.20409 160.45316 36329 ft 382 kts 286°
2026-04-29 05:22 -43.18661 160.38430 36329 ft 382 kts 286°
2026-04-29 05:23 -43.16903 160.31525 36331 ft 382 kts 286°
2026-04-29 05:23 -43.15153 160.24671 36331 ft 382 kts 286°
2026-04-29 05:24 -43.13386 160.17790 36331 ft 383 kts 286°
2026-04-29 05:24 -43.11608 160.10892 36337 ft 384 kts 286°
2026-04-29 05:25 -43.09834 160.04012 36338 ft 384 kts 286°
2026-04-29 05:25 -43.08052 159.97106 36339 ft 384 kts 286°
2026-04-29 05:26 -43.06279 159.90236 36342 ft 385 kts 286°
2026-04-29 05:26 -43.04481 159.83321 36341 ft 386 kts 286°
2026-04-29 05:27 -43.02672 159.76400 36345 ft 386 kts 287°
2026-04-29 05:27 -42.99961 159.66059 36350 ft 387 kts 286°
2026-04-29 05:28 -42.98452 159.60302 36350 ft 387 kts 286°
2026-04-29 05:28 -42.96635 159.53386 36350 ft 387 kts 287°
2026-04-29 05:29 -42.94802 159.46440 36356 ft 388 kts 287°
2026-04-29 05:29 -42.92974 159.39542 36356 ft 389 kts 287°
2026-04-29 05:30 -42.91117 159.32581 36356 ft 389 kts 287°
2026-04-29 05:30 -42.89271 159.25646 36361 ft 389 kts 287°
2026-04-29 05:31 -42.87420 159.18700 36350 ft 389 kts 287°
2026-04-29 05:31 -42.85566 159.11792 36361 ft 391 kts 287°
2026-04-29 05:32 -42.83694 159.04822 36361 ft 391 kts 287°
2026-04-29 05:32 -42.81831 158.97894 36366 ft 391 kts 287°
2026-04-29 05:33 -42.79950 158.90945 36366 ft 391 kts 287°
2026-04-29 05:33 -42.78068 158.83984 36362 ft 391 kts 287°
2026-04-29 05:34 -42.76168 158.76998 36369 ft 393 kts 287°
2026-04-29 05:34 -42.74279 158.70064 36371 ft 393 kts 287°
2026-04-29 05:35 -42.72372 158.63073 36376 ft 393 kts 287°
2026-04-29 05:35 -42.70467 158.56147 36379 ft 393 kts 287°
2026-04-29 05:36 -42.68553 158.49203 36375 ft 393 kts 287°
2026-04-29 05:36 -42.66636 158.42229 36377 ft 393 kts 287°
2026-04-29 05:37 -42.64717 158.35265 36377 ft 393 kts 287°
2026-04-29 05:37 -42.62786 158.28306 36377 ft 393 kts 287°
2026-04-29 05:38 -42.60861 158.21386 36373 ft 394 kts 287°
2026-04-29 05:38 -42.58917 158.14415 36380 ft 395 kts 287°
2026-04-29 05:39 -42.56967 158.07430 36380 ft 395 kts 287°
2026-04-29 05:39 -42.55022 158.00499 36382 ft 395 kts 288°
2026-04-29 05:40 -42.53052 157.93519 36383 ft 395 kts 287°
2026-04-29 05:40 -42.51099 157.86579 36369 ft 395 kts 287°
2026-04-29 05:41 -42.49127 157.79580 36387 ft 397 kts 288°
2026-04-29 05:41 -42.47146 157.72580 36390 ft 397 kts 288°
2026-04-29 05:42 -42.45177 157.65630 36393 ft 397 kts 288°
2026-04-29 05:42 -42.43181 157.58636 36393 ft 397 kts 288°
2026-04-29 05:43 -42.41182 157.51649 36391 ft 398 kts 288°
2026-04-29 05:43 -42.39183 157.44672 36393 ft 399 kts 288°
2026-04-29 05:44 -42.37178 157.37697 36396 ft 399 kts 288°
2026-04-29 05:44 -42.35154 157.30692 36396 ft 399 kts 288°
2026-04-29 05:45 -42.33130 157.23695 36399 ft 399 kts 288°
2026-04-29 05:45 -42.31110 157.16732 36400 ft 400 kts 288°
2026-04-29 05:46 -42.29074 157.09712 36404 ft 401 kts 288°
2026-04-29 05:46 -42.27031 157.02689 36404 ft 401 kts 288°
2026-04-29 05:47 -42.25000 156.95722 36404 ft 401 kts 288°
2026-04-29 05:47 -42.22942 156.88695 36399 ft 401 kts 288°
2026-04-29 05:48 -42.20871 156.81680 36420 ft 402 kts 288°
2026-04-29 05:48 -42.18823 156.74721 36406 ft 401 kts 288°
2026-04-29 05:49 -42.16766 156.67720 36413 ft 401 kts 288°
2026-04-29 05:49 -42.14700 156.60739 36409 ft 401 kts 288°
2026-04-29 05:50 -42.12625 156.53771 36407 ft 401 kts 288°
2026-04-29 05:50 -42.10551 156.46813 36412 ft 402 kts 289°
2026-04-29 05:51 -42.08462 156.39817 36415 ft 402 kts 289°
2026-04-29 05:51 -42.06365 156.32812 36420 ft 402 kts 289°
2026-04-29 05:52 -42.04282 156.25870 36421 ft 402 kts 289°
2026-04-29 05:52 -42.02172 156.18864 36419 ft 403 kts 289°
2026-04-29 05:53 -42.00054 156.11872 36420 ft 404 kts 289°
2026-04-29 05:53 -41.97946 156.04896 36421 ft 404 kts 289°
2026-04-29 05:54 -41.95816 155.97872 36423 ft 404 kts 289°
2026-04-29 05:54 -41.93693 155.90911 36420 ft 404 kts 289°
2026-04-29 05:55 -41.91558 155.83916 36423 ft 404 kts 289°
2026-04-29 05:55 -41.89428 155.76951 36424 ft 405 kts 289°
2026-04-29 05:56 -41.87288 155.69958 36428 ft 405 kts 289°
2026-04-29 05:56 -41.85132 155.62959 36428 ft 405 kts 289°
2026-04-29 05:57 -41.82981 155.56006 36431 ft 406 kts 289°
2026-04-29 05:57 -41.80810 155.49006 36431 ft 406 kts 289°
2026-04-29 05:58 -41.78655 155.42050 36432 ft 406 kts 289°
2026-04-29 05:58 -41.76483 155.35056 36435 ft 406 kts 289°
2026-04-29 05:59 -41.74301 155.28063 36433 ft 406 kts 289°
2026-04-29 05:59 -41.72124 155.21077 36437 ft 406 kts 289°
2026-04-29 06:00 -41.69944 155.14125 36440 ft 406 kts 289°
2026-04-29 06:00 -41.67762 155.07175 36438 ft 406 kts 289°
2026-04-29 06:01 -41.65570 155.00191 36436 ft 406 kts 289°
2026-04-29 06:01 -41.63357 154.93218 36437 ft 407 kts 290°
2026-04-29 06:02 -41.61153 154.86287 36437 ft 407 kts 290°
2026-04-29 06:02 -41.58942 154.79293 36437 ft 407 kts 289°
2026-04-29 06:03 -41.56735 154.72322 36439 ft 407 kts 290°
2026-04-29 06:03 -41.54520 154.65402 36434 ft 407 kts 290°
2026-04-29 06:04 -41.52275 154.58412 36440 ft 408 kts 290°
2026-04-29 06:04 -41.50059 154.51495 36440 ft 408 kts 290°
2026-04-29 06:05 -41.47824 154.44527 36438 ft 407 kts 290°
2026-04-29 06:05 -41.45585 154.37578 36448 ft 407 kts 290°
2026-04-29 06:06 -41.43354 154.30675 36451 ft 407 kts 290°
2026-04-29 06:06 -41.41106 154.23740 36447 ft 407 kts 290°
2026-04-29 06:07 -41.38853 154.16811 36447 ft 407 kts 290°
2026-04-29 06:07 -41.36608 154.09918 36448 ft 407 kts 290°
2026-04-29 06:08 -41.34349 154.02996 36444 ft 408 kts 290°
2026-04-29 06:08 -41.32459 153.97223 36449 ft 408 kts 290°
2026-04-29 06:09 -41.29808 153.89161 36445 ft 408 kts 290°
2026-04-29 06:09 -41.27531 153.82240 36452 ft 408 kts 290°
2026-04-29 06:10 -41.25268 153.75367 36449 ft 408 kts 290°
2026-04-29 06:10 -41.23356 153.69582 36452 ft 408 kts 290°
2026-04-29 06:11 -41.21080 153.62705 36449 ft 408 kts 290°
2026-04-29 06:11 -41.18787 153.55796 36449 ft 408 kts 290°
2026-04-29 06:12 -41.16499 153.48936 36450 ft 408 kts 290°
2026-04-29 06:12 -41.14197 153.42039 36448 ft 408 kts 290°
2026-04-29 06:13 -41.11903 153.35176 36450 ft 408 kts 290°
2026-04-29 06:13 -41.09588 153.28278 36449 ft 408 kts 290°
2026-04-29 06:14 -41.07269 153.21388 36450 ft 408 kts 290°
2026-04-29 06:14 -41.04971 153.14558 36450 ft 408 kts 290°
2026-04-29 06:15 -41.02640 153.07667 36452 ft 408 kts 290°
2026-04-29 06:15 -41.00309 153.00797 36453 ft 408 kts 290°
2026-04-29 06:16 -40.97990 152.93974 36450 ft 408 kts 291°
2026-04-29 06:16 -40.95649 152.87096 36451 ft 408 kts 290°
2026-04-29 06:17 -40.93324 152.80262 36445 ft 408 kts 290°
2026-04-29 06:17 -40.90980 152.73408 36450 ft 409 kts 291°
2026-04-29 06:18 -40.88625 152.66542 36449 ft 409 kts 291°
2026-04-29 06:18 -40.86291 152.59734 36451 ft 409 kts 291°
2026-04-29 06:19 -40.83928 152.52884 36449 ft 409 kts 291°
2026-04-29 06:19 -40.81557 152.46048 36451 ft 409 kts 291°
2026-04-29 06:20 -40.79204 152.39246 36451 ft 409 kts 291°
2026-04-29 06:20 -40.76836 152.32412 36452 ft 409 kts 291°
2026-04-29 06:21 -40.74455 152.25579 36449 ft 409 kts 291°
2026-04-29 06:21 -40.72073 152.18763 36450 ft 409 kts 291°
2026-04-29 06:22 -40.69709 152.11994 36450 ft 409 kts 291°
2026-04-29 06:22 -40.67319 152.05160 36450 ft 409 kts 291°
2026-04-29 06:23 -40.64941 151.98387 36450 ft 409 kts 291°
2026-04-29 06:23 -40.62541 151.91591 36442 ft 409 kts 291°
2026-04-29 06:24 -40.60146 151.84799 36450 ft 408 kts 291°
2026-04-29 06:24 -40.57757 151.78043 36450 ft 408 kts 291°
2026-04-29 06:25 -40.55353 151.71270 36453 ft 408 kts 291°
2026-04-29 06:25 -40.52943 151.64489 36453 ft 408 kts 291°
2026-04-29 06:26 -40.50540 151.57723 36450 ft 408 kts 291°
2026-04-29 06:26 -40.48142 151.50998 36450 ft 407 kts 291°
2026-04-29 06:27 -40.45725 151.44266 36448 ft 408 kts 291°
2026-04-29 06:27 -40.43301 151.37523 36447 ft 408 kts 291°
2026-04-29 06:28 -40.40871 151.30776 36449 ft 407 kts 291°
2026-04-29 06:28 -40.38460 151.24093 36451 ft 407 kts 291°
2026-04-29 06:29 -40.36031 151.17365 36447 ft 407 kts 291°
2026-04-29 06:29 -40.33593 151.10652 36448 ft 407 kts 291°
2026-04-29 06:30 -40.29951 151.00613 36449 ft 407 kts 291°
2026-04-29 06:31 -40.27507 150.93905 36447 ft 407 kts 291°
2026-04-29 06:31 -40.25075 150.87251 36448 ft 406 kts 291°
2026-04-29 06:32 -40.22631 150.80556 36444 ft 407 kts 291°
2026-04-29 06:32 -40.20197 150.73915 36437 ft 407 kts 291°
2026-04-29 06:33 -40.17742 150.67243 36447 ft 406 kts 291°
2026-04-29 06:33 -40.15290 150.60582 36445 ft 406 kts 291°
2026-04-29 06:34 -40.12820 150.53978 36443 ft 406 kts 291°
2026-04-29 06:34 -40.10286 150.47367 36445 ft 406 kts 292°
2026-04-29 06:35 -40.07765 150.40812 36444 ft 405 kts 291°
2026-04-29 06:35 -40.05237 150.34219 36444 ft 405 kts 291°
2026-04-29 06:36 -40.02712 150.27629 36444 ft 405 kts 291°
2026-04-29 06:36 -40.00196 150.21074 36445 ft 405 kts 291°
2026-04-29 06:37 -39.97663 150.14496 36440 ft 405 kts 292°
2026-04-29 06:37 -39.95116 150.07912 36441 ft 405 kts 292°
2026-04-29 06:38 -39.92568 150.01359 36448 ft 406 kts 292°
2026-04-29 06:38 -39.90028 149.94824 36444 ft 406 kts 292°
2026-04-29 06:39 -39.87477 149.88255 36440 ft 406 kts 292°
2026-04-29 06:39 -39.84921 149.81682 36451 ft 406 kts 292°
2026-04-29 06:40 -39.82378 149.75163 36450 ft 406 kts 292°
2026-04-29 06:40 -39.79809 149.68614 36452 ft 406 kts 292°
2026-04-29 06:41 -39.77244 149.62086 36441 ft 406 kts 292°
2026-04-29 06:41 -39.74669 149.55533 36448 ft 406 kts 292°
2026-04-29 06:42 -39.72110 149.49032 36445 ft 406 kts 292°
2026-04-29 06:42 -39.69523 149.42499 36445 ft 406 kts 292°
2026-04-29 06:43 -39.66931 149.35956 36443 ft 406 kts 292°
2026-04-29 06:43 -39.64352 149.29453 36445 ft 406 kts 293°
2026-04-29 06:44 -39.61759 149.22922 36446 ft 406 kts 293°
2026-04-29 06:44 -39.59158 149.16404 36448 ft 406 kts 293°
2026-04-29 06:45 -39.56571 149.09925 36447 ft 406 kts 293°
2026-04-29 06:45 -39.53959 149.03389 36439 ft 407 kts 293°
2026-04-29 06:46 -39.51363 148.96926 36455 ft 406 kts 293°
2026-04-29 06:46 -39.48754 148.90414 36451 ft 406 kts 293°